Lid_Strength_Index
5 5 5 6 6 6 6 6 6 6 6 5 5 4 4 4 4 7 9 7 8 10 7 5 4 7 8 9 11 9 11 10 11 14 14 13 13 12 13 11 12 13 15 15 15 16 18 8 8 12 9 7 7 7
5 5 5 5 6 6 6 6 6 5 5 5 5 4 4 4 4 5 9 5 3 7 7 5 4 4 5 5 7 9 10 8 9 12 13 11 14 13 13 15 9 14 12 13 13 13 8 7 8 6 6 7 7 7
5 5 5 6 6 6 6 6 5 5 5 5 4 4 3 3 3 4 7 5 5 8 7 6 6 5 3 4 5 8 7 6 7 7 9 10 12 12 14 13 11 9 8 11 11 9 8 7 6 6 6 6 5 5
5 5 5 5 6 6 6 6 5 5 5 4 4 3 3 2 2 2 6 3 5 7 10 8 4 4 2 4 5 4 5 6 6 7 9 10 12 8 11 10 11 9 9 10 10 8 7 7 7 7 7 5 6 6
5 6 6 6 6 6 6 5 5 5 4 4 3 2 2 2 1 3 4 3 4 7 11 10 7 4 3 4 5 6 8 9 9 9 10 11 8 9 9 9 11 8 9 11 12 8 9 9 8 5 5 5 5 6
5 6 6 6 6 6 5 5 5 5 4 3 2 2 1 1 0 4 5 3 3 5 9 11 7 5 4 5 6 7 8 8 8 9 10 9 7 9 11 12 8 6 6 6 8 7 8 8 6 5 7 7 6 6
6 6 6 6 6 6 5 5 4 4 3 3 2 1 1 1 3 6 7 4 2 4 8 10 10 6 5 5 6 7 7 8 8 8 9 8 8 8 11 12 8 6 6 6 5 6 10 8 8 6 6 6 6 6
7 6 6 6 6 6 5 5 4 3 3 2 1 1 0 1 2 5 4 2 3 5 7 10 10 8 6 9 9 6 8 8 9 9 8 8 8 8 11 8 6 5 6 6 7 7 8 7 6 6 6 6 7 7
6 6 6 6 6 5 5 4 3 3 2 1 1 0 3 5 5 4 -0 0 4 5 9 9 14 14 6 9 9 7 8 10 8 9 9 9 11 11 9 8 7 6 8 8 7 7 7 8 7 7 7 7 8 8
6 6 6 6 6 5 4 3 3 2 2 1 2 4 6 4 -1 1 4 6 6 6 6 8 8 12 9 10 10 10 8 9 11 9 8 11 11 7 6 5 5 5 6 7 9 9 8 9 8 8 7 7 7 8
7 6 6 6 5 4 4 3 2 2 2 4 6 6 5 0 4 6 8 8 8 9 7 9 9 11 7 10 12 10 11 10 14 10 10 11 11 8 5 5 4 4 6 7 7 7 7 7 7 7 6 6 6 6
6 6 6 5 4 4 3 3 2 5 6 5 5 4 5 5 6 8 10 8 9 11 8 9 9 7 8 6 8 9 11 9 13 8 11 13 9 7 5 5 4 4 5 6 6 6 6 6 6 6 6 6 6 5
6 6 5 4 4 4 3 2 2 1 2 3 5 5 7 7 12 10 12 12 11 9 9 7 9 8 8 8 9 9 11 12 7 11 12 12 9 6 5 5 4 4 3 5 6 5 5 4 4 4 4 4 5 5
6 5 4 4 4 3 2 2 1 2 4 5 7 12 10 11 10 11 9 8 7 9 8 7 8 8 8 9 9 11 9 9 12 14 13 10 6 5 4 4 4 4 4 4 4 4 5 5 4 3 3 3 3 4
5 4 4 4 3 2 2 2 1 3 3 6 6 12 9 7 6 6 7 7 7 5 6 7 7 8 9 9 9 9 11 13 12 12 9 7 5 5 5 4 4 4 4 4 3 3 3 3 4 3 3 3 4 4
4 4 4 3 3 2 2 1 1 2 3 5 6 8 7 7 7 6 6 6 4 5 6 6 9 10 10 10 10 11 12 13 11 8 6 5 6 6 6 4 3 3 3 3 3 3 3 3 3 3 3 4 5 5
4 6 4 3 2 2 1 2 2 3 5 6 7 6 7 6 7 6 6 6 4 6 8 8 10 11 9 11 11 10 11 9 7 6 5 5 6 6 6 5 4 3 3 3 3 3 3 2 3 4 5 4 5 5
7 6 4 3 3 3 2 2 3 4 7 7 8 7 7 7 7 5 5 5 6 6 6 8 7 10 11 12 11 9 7 6 5 6 6 6 6 6 6 6 5 3 3 3 3 3 2 3 3 4 3 4 4 4
6 5 3 3 3 5 3 4 4 7 7 6 6 5 6 6 5 5 5 5 5 5 6 7 9 10 10 8 8 8 7 7 7 6 6 7 7 7 6 6 6 6 4 4 4 4 3 2 2 3 3 5 5 5
4 3 3 2 3 4 5 6 3 6 8 6 6 6 5 6 6 5 6 6 6 7 9 10 10 9 9 8 7 7 6 5 5 8 8 7 6 6 6 6 7 7 6 5 4 5 3 3 4 3 4 4 4 5
4 3 2 3 3 4 5 6 6 6 6 7 5 6 6 5 6 7 7 6 7 8 10 7 7 6 5 5 4 4 5 6 7 8 7 7 6 6 6 6 6 6 6 5 5 4 4 4 4 3 3 2 2 4
4 2 3 1 4 4 6 4 6 5 6 6 6 5 7 7 8 7 6 7 8 7 6 6 5 5 4 4 3 4 5 6 6 7 6 6 7 7 7 7 7 8 7 6 6 5 4 4 2 2 2 2 3 4
3 3 3 3 7 10 10 5 6 6 8 7 6 8 8 8 7 5 8 7 7 5 4 4 4 3 3 3 3 3 4 6 7 7 7 7 7 7 7 7 7 8 8 6 6 6 5 6 3 2 2 2 3 4
3 5 6 6 7 10 5 6 6 6 7 7 8 9 8 8 5 7 9 8 6 5 5 5 4 5 5 4 5 5 5 6 6 6 7 7 7 8 7 7 7 7 7 7 6 6 5 5 4 3 3 4 3 2
9 10 9 14 7 7 7 7 7 7 8 7 8 8 7 6 9 9 9 8 7 6 5 5 5 5 5 6 5 4 5 5 6 7 6 7 8 7 7 7 7 7 6 6 6 6 6 4 4 3 3 3 3 4
15 8 10 6 7 8 7 8 8 8 8 8 8 7 6 8 9 10 8 6 5 5 5 5 6 6 6 6 6 4 5 5 5 6 6 7 7 8 8 8 8 8 6 6 6 6 6 6 6 3 3 3 6 3
13 8 7 5 6 6 8 7 6 8 8 8 8 8 9 10 10 8 5 3 4 4 4 4 3 4 5 5 4 3 3 4 5 5 5 6 6 7 7 8 8 7 5 5 5 5 6 5 4 3 3 3 4 4
6 6 8 6 7 6 8 8 7 8 7 6 7 9 10 10 11 6 4 3 4 4 4 4 3 4 4 4 3 3 3 4 4 5 5 6 6 6 6 6 6 8 5 5 5 4 5 5 4 4 4 5 4 5
6 5 5 7 6 7 7 7 7 6 5 6 8 8 9 5 4 4 4 3 3 3 4 3 4 3 4 3 4 4 4 5 6 7 8 9 9 8 7 7 6 6 5 5 7 7 6 6 5 4 4 5 5 5
6 5 7 6 8 9 7 5 6 5 4 5 5 5 5 5 4 3 3 3 3 3 4 4 3 4 4 4 6 6 6 6 7 8 9 10 9 9 8 8 7 6 5 5 6 5 8 5 6 5 5 6 6 6
5 5 6 7 7 6 5 4 4 4 4 5 5 6 6 5 4 3 3 4 3 4 4 4 4 4 4 4 6 7 7 6 6 7 8 9 9 9 8 8 7 7 6 6 6 6 6 7 7 7 7 7 7 7
6 7 8 8 8 5 4 5 6 7 6 6 7 5 6 6 6 5 3 2 3 3 6 4 4 4 3 4 4 4 6 5 6 7 7 8 8 8 8 8 8 7 7 7 6 6 6 7 8 7 8 8 8 8
6 6 6 6 7 7 6 6 7 7 6 7 6 6 6 6 7 5 2 2 3 3 3 3 3 3 3 3 4 5 6 6 9 10 11 10 11 10 9 9 8 7 7 7 7 7 7 7 8 8 8 9 9 9